Charleston, SC

8:11 PM EST on February 09, 2016 (GMT -0500)
Seaside Plantation | | Change Station
CLOSE
Current Station
Personal Weather Station
Location: James Island, SC
Elevation: 35 ft
Nearby Weather Stations

Elev 35 ft 32.71 °N, 79.95 °W | Updated 3 seconds ago

Partly Cloudy
Partly Cloudy
39.0 °F
Feels Like 36 °F
N
3.7
Wind Variable Wind from West

Today
High -- | Low -- °F
--% Chance of Precip.
Yesterday
High -- | Low -- °F
Precip. -- in
Pressure 29.92 in
Visibility 10.0 miles
Clouds Scattered Clouds 8000 ft
Windchill 36 °F
Dew Point 25 °F
Humidity 56%
Rainfall 0.00 in
Snow Depth Not available.
7:08 AM 5:59 PM
Waxing Crescent, 3% visible
METAR KJZI 100055Z AUTO 26005KT 10SM SCT080 04/M05 A2992 RMK AO2
Pressure 29.92 in
Visibility 10.0 miles
Clouds Scattered Clouds 8000 ft
Windchill 36 °F
Dew Point 25 °F
Humidity 56%
Rainfall 0.00 in
Snow Depth Not available.
7:08 AM 5:59 PM
Waxing Crescent, 3% visible
METAR KJZI 100055Z AUTO 26005KT 10SM SCT080 04/M05 A2992 RMK AO2

10-Day Weather Forecast

Almanac

Astronomy

Feb. 09, 2016 Rise Set
Actual Time
Civil Twilight
Nautical Twilight
Astronomical Twilight
Moon
Length of Visible Light
Length of Day
Tomorrow will be .
, % of the Moon is Illuminated

Today's Extremes

State Highs State Lows

Community

WunderPhotos

Upload Photos

1,891,752 photos uploaded!

WunderBlog® & News

Nearby

Air Quality

  Air Quality AQ Index Pollutant
Not available.

Snow Depth

Station Depth Elevation

Earthquake Activity

City Distance Mag. Time & Date
Minimum magnitude displayed is 2.5.

Coastal Water Temperatures

Place Temperature

Stations

Nearby Weather Stations

Station Location Temp. Windchill Dew Point Humidity Wind Precip. Elev Updated Type
                   

Watches & Warnings

There are currently no watches in effect.